Location: Gettysburg
(39.8310°N, 77.2310°W)
Time: 12:24:51
(UTC-05:00)

ATLAS 2AS CENTAUR R/B - Visible Passes

Search period start: 28 February 2015 00:00
Search period end: 10 March 2015 01:00
Orbit: 915 x 1297 km, 63.7° (Epoch: 27 February)

Date Brightness Start Highest point End Pass type
(mag) Time Alt. Az. Time Alt. Az. Time Alt. Az.
28 Feb 5.2 20:05:58 10° NNW 20:09:03 12° N 20:12:05 10° NNE visible
28 Feb 5.1 21:59:39 10° NNW 22:03:08 15° NNE 22:03:08 15° NNE visible
28 Feb 5.5 23:50:01 10° NNW 23:50:34 12° NNW 23:50:34 12° NNW visible
01 Mar 5.2 19:19:13 10° NW 19:23:14 14° NNW 19:27:12 10° NNE visible
01 Mar 5.1 21:14:52 10° NNW 21:18:07 13° N 21:19:48 12° NNE visible
01 Mar 5.2 23:05:25 10° NNW 23:07:15 16° N 23:07:15 16° N visible
02 Mar 5.1 18:32:31 10° WNW 18:37:32 18° NNW 18:42:32 10° NNE visible
02 Mar 5.2 20:29:40 10° NNW 20:32:16 12° N 20:34:54 10° NNE visible
02 Mar 5.0 22:20:51 10° NNW 22:23:55 18° N 22:23:55 18° N visible
03 Mar 5.6 00:11:18 10° NNW 00:11:22 10° NNW 00:11:22 10° NNW visible
03 Mar 5.2 19:43:42 10° NNW 19:46:23 12° N 19:49:01 10° NNE visible
03 Mar 4.9 21:36:15 10° NNW 21:40:36 17° NNE 21:40:36 17° NNE visible
03 Mar 5.3 23:26:36 10° NNW 23:28:02 16° NNW 23:28:02 16° NNW visible
04 Mar 5.1 18:57:04 10° NW 19:00:31 13° NNW 19:03:53 10° NNE visible
04 Mar 5.0 20:51:34 10° NNW 20:55:25 14° NNE 20:57:17 13° NNE visible
04 Mar 5.0 22:41:59 10° NNW 22:44:43 21° N 22:44:43 21° N visible
05 Mar 5.1 20:06:39 10° NNW 20:09:35 12° N 20:12:37 10° NNE visible
05 Mar 4.7 21:57:24 10° NNW 22:01:25 22° N 22:01:25 22° N visible
05 Mar 5.4 23:47:58 10° NNW 23:48:51 14° NNW 23:48:51 14° NNW visible
06 Mar 5.1 19:21:10 10° NNW 19:23:41 12° N 19:26:15 10° NNE visible
06 Mar 4.7 21:12:49 10° NNW 21:18:07 20° NNE 21:18:07 20° NNE visible
06 Mar 5.0 23:03:13 10° NNW 23:05:34 21° NNW 23:05:34 21° NNW visible
07 Mar 5.1 18:34:52 10° NNW 18:37:49 12° N 18:40:42 10° NNE visible
07 Mar 4.8 20:28:11 10° NNW 20:32:40 16° NNE 20:34:50 14° NE visible
07 Mar 4.6 22:18:33 10° NNW 22:22:17 27° N 22:22:17 27° N visible
08 Mar 5.5 00:09:40 10° NW 00:09:43 10° NW 00:09:43 10° NW visible
08 Mar 5.0 20:43:27 10° NNW 20:46:53 13° NNE 20:50:28 10° NE visible
08 Mar 4.4 22:33:56 10° NNW 22:39:01 28° NNE 22:39:01 28° NNE visible
09 Mar 5.1 00:24:40 10° NW 00:26:27 18° NW 00:26:27 18° NW visible
09 Mar 5.1 19:58:21 10° NNW 20:01:01 12° N 20:03:46 10° NNE visible
09 Mar 4.4 21:49:21 10° NNW 21:55:27 23° NNE 21:55:46 23° NE visible
09 Mar 4.6 23:39:51 10° NNW 23:43:13 28° NNW 23:43:13 28° NNW visible
